This is the latest recevied weather packets stored in our database for station/object KF7SOJ. If no packets are shown the sender has not sent any weather packets the latest 10 day(s).
| Time | Temp. | Humidity | Pressure | Rain* | Wind** | Luminosity | Snow |
|---|---|---|---|---|---|---|---|
| 1777419234 | 12.22° C | 41% | 932.5 hPa | 0 mm | - | 174 W/m² | - |
| 1777418930 | 12.22° C | 43% | 932.6 hPa | 0 mm | - | 233 W/m² | - |
| 1777418626 | 12.22° C | 41% | 932.4 hPa | 0 mm | - | 337 W/m² | - |
| 1777418322 | 12.78° C | 39% | 932.4 hPa | 0 mm | - | 249 W/m² | - |
| 1777418018 | 12.78° C | 38% | 932.1 hPa | 0 mm | - | 314 W/m² | - |
| 1777417714 | 12.78° C | 38% | 932.2 hPa | 0 mm | - | 293 W/m² | - |
| 1777417410 | 12.22° C | 38% | 932.3 hPa | 0 mm | - | 461 W/m² | - |
| 1777417106 | 12.22° C | 38% | 932.3 hPa | 0 mm | - | 264 W/m² | - |
| 1777416801 | 11.67° C | 38% | 932.4 hPa | 0 mm | - | 471 W/m² | - |
| 1777416497 | 11.67° C | 41% | 932.4 hPa | 0 mm | - | 412 W/m² | - |
| 1777416194 | 11.11° C | 44% | 932.5 hPa | 0 mm | - | 262 W/m² | - |
| 1777415893 | 11.11° C | 44% | 932.6 hPa | 0 mm | - | 161 W/m² | - |
| 1777415590 | 11.11° C | 44% | 932.6 hPa | 0 mm | - | 186 W/m² | - |
| 1777415285 | 11.11° C | 42% | 932.5 hPa | 0 mm | - | 221 W/m² | - |
| 1777414980 | 11.67° C | 41% | 932.4 hPa | 0 mm | - | 238 W/m² | - |
| 1777414680 | 11.67° C | 43% | 932.4 hPa | 0 mm | - | 587 W/m² | - |
| 1777414376 | 11.67° C | 42% | 932.5 hPa | 0 mm | - | 254 W/m² | - |
| 1777414076 | 11.11° C | 45% | 932.5 hPa | 0 mm | - | 357 W/m² | - |
| 1777413776 | 10.56° C | 46% | 932.6 hPa | 0 mm | - | 393 W/m² | - |
| 1777413472 | 10° C | 46% | 932.8 hPa | 0 mm | - | 201 W/m² | - |
| 1777413168 | 10.56° C | 46% | 932.8 hPa | 0 mm | - | 288 W/m² | - |
| 1777412864 | 10.56° C | 46% | 932.5 hPa | 0 mm | - | 314 W/m² | - |
| 1777412563 | 10.56° C | 44% | 932.7 hPa | 0 mm | - | 269 W/m² | - |
| 1777412261 | 11.11° C | 44% | 932.5 hPa | 0 mm | - | 204 W/m² | - |
| 1777411957 | 11.11° C | 44% | 932.7 hPa | 0 mm | - | 251 W/m² | - |
* Rain latest hour (hover to see other rain measurements)
** Current wind speed in m/s (hover to see current wind gust speed)